TimeEST,TemperatureF,Dew PointF,Humidity,Sea Level PressureIn,VisibilityMPH,Wind Direction,Wind SpeedMPH,Gust SpeedMPH,PrecipitationIn,Events,Conditions,WindDirDegrees,DateUTC
12:54 AM,30.9,24.1,76,30.05,10.0,ENE,10.4,20.7,N/A,,Overcast,60,2013-03-07 05:54:00
1:54 AM,30.0,24.1,79,30.05,10.0,NE,12.7,19.6,N/A,,Overcast,50,2013-03-07 06:54:00
2:54 AM,30.0,23.0,75,30.03,10.0,ENE,16.1,26.5,N/A,,Overcast,60,2013-03-07 07:54:00
3:54 AM,30.0,21.9,72,30.02,10.0,NNE,11.5,21.9,N/A,,Overcast,30,2013-03-07 08:54:00
4:54 AM,30.0,21.9,72,30.04,10.0,NE,11.5,20.7,N/A,,Overcast,40,2013-03-07 09:54:00
5:54 AM,28.9,21.9,75,30.06,10.0,NE,11.5,-,N/A,,Overcast,50,2013-03-07 10:54:00
6:54 AM,28.9,21.9,75,30.06,5.0,NNE,9.2,17.3,0.00,Snow,Light Snow,30,2013-03-07 11:54:00
7:00 AM,28.4,21.2,74,30.03,1.8,NNE,10.4,20.7,0.00,Snow,Light Snow,30,2013-03-07 12:00:00
7:32 AM,28.4,23.0,80,30.03,2.0,NNE,9.2,-,0.00,Snow,Light Snow,30,2013-03-07 12:32:00
7:43 AM,28.4,21.2,74,30.04,6.0,NNE,6.9,-,0.00,Snow,Light Snow,30,2013-03-07 12:43:00
7:54 AM,28.9,23.0,78,30.07,8.0,NE,11.5,-,0.00,,Overcast,40,2013-03-07 12:54:00
8:05 AM,28.4,23.0,80,30.04,8.0,North,9.2,-,N/A,,Overcast,10,2013-03-07 13:05:00
8:12 AM,28.4,23.0,80,30.04,10.0,NNE,6.9,-,N/A,,Overcast,20,2013-03-07 13:12:00
8:54 AM,30.0,23.0,75,30.07,8.0,NE,9.2,-,0.00,Snow,Light Snow,40,2013-03-07 13:54:00
9:54 AM,30.0,23.0,75,30.06,7.0,NNE,5.8,-,0.00,Snow,Light Snow,30,2013-03-07 14:54:00
10:54 AM,32.0,24.1,73,30.06,6.0,North,9.2,-,0.00,Snow,Light Snow,350,2013-03-07 15:54:00
11:54 AM,33.1,24.1,70,30.06,10.0,North,9.2,17.3,0.00,,Overcast,360,2013-03-07 16:54:00
12:54 PM,33.1,24.1,70,30.04,10.0,North,8.1,-,N/A,,Overcast,10,2013-03-07 17:54:00
1:54 PM,33.1,26.1,75,30.04,4.0,North,5.8,-,0.00,Snow,Light Snow,360,2013-03-07 18:54:00
2:47 PM,33.8,26.6,75,30.02,1.8,NW,6.9,-,0.00,Snow,Light Snow,320,2013-03-07 19:47:00
2:54 PM,32.0,27.0,82,30.06,1.0,NW,9.2,-,0.00,Snow,Light Snow,320,2013-03-07 19:54:00
3:54 PM,30.9,27.0,85,30.06,1.5,NNW,6.9,-,0.00,Snow,Light Snow,330,2013-03-07 20:54:00
4:23 PM,30.2,26.6,86,30.03,0.8,NW,6.9,-,0.01,Snow,Light Snow,320,2013-03-07 21:23:00
4:37 PM,30.2,28.4,93,30.03,1.0,NW,6.9,-,0.02,Snow,Light Snow,320,2013-03-07 21:37:00
4:54 PM,30.0,27.0,88,30.07,0.8,NNW,6.9,-,0.02,Snow,Light Snow,330,2013-03-07 21:54:00
5:20 PM,30.2,26.6,86,30.04,1.0,NW,8.1,-,0.00,Snow,Light Snow,320,2013-03-07 22:20:00
5:54 PM,30.0,26.1,85,30.08,1.5,NNW,5.8,-,0.01,Snow,Light Snow,330,2013-03-07 22:54:00
6:04 PM,28.4,24.8,86,30.05,2.5,NW,8.1,-,0.00,Snow,Light Snow,320,2013-03-07 23:04:00
6:42 PM,28.4,26.6,93,30.05,1.8,NNW,8.1,-,0.00,Snow,Light Snow,330,2013-03-07 23:42:00
6:54 PM,28.9,26.1,89,30.09,1.8,NNW,6.9,-,0.00,Snow,Light Snow,340,2013-03-07 23:54:00
7:01 PM,28.4,26.6,93,30.05,2.0,NNW,9.2,-,0.00,Snow,Light Snow,330,2013-03-08 00:01:00
7:34 PM,28.4,24.8,86,30.05,3.0,NNW,5.8,-,0.01,Snow,Light Snow,340,2013-03-08 00:34:00
7:51 PM,28.4,24.8,86,30.04,2.5,NW,5.8,-,0.01,Snow,Light Snow,320,2013-03-08 00:51:00
7:54 PM,28.9,25.0,85,30.08,2.5,NNW,6.9,-,0.01,Snow,Light Snow,330,2013-03-08 00:54:00
8:10 PM,28.4,24.8,86,30.04,1.2,NW,6.9,-,0.00,Snow,Light Snow,320,2013-03-08 01:10:00
8:31 PM,28.4,24.8,86,30.04,1.0,NW,4.6,-,0.01,Snow,Light Snow,310,2013-03-08 01:31:00
8:52 PM,28.4,24.8,86,30.04,1.5,NW,4.6,-,0.02,Snow,Light Snow,320,2013-03-08 01:52:00
8:54 PM,28.0,25.0,88,30.08,1.8,NW,4.6,-,0.02,Snow,Light Snow,320,2013-03-08 01:54:00
9:02 PM,28.4,24.8,86,30.04,2.5,WNW,4.6,-,0.00,Snow,Light Snow,300,2013-03-08 02:02:00
9:43 PM,28.4,24.8,86,30.03,1.5,NW,4.6,-,0.01,Snow,Light Snow,310,2013-03-08 02:43:00
9:54 PM,28.0,25.0,88,30.07,1.2,NW,4.6,-,0.01,Snow,Light Snow,320,2013-03-08 02:54:00
10:15 PM,28.4,24.8,86,30.02,2.0,NW,5.8,-,0.00,Snow,Light Snow,310,2013-03-08 03:15:00
10:46 PM,28.4,24.8,86,30.01,1.5,NW,4.6,-,0.01,Snow,Light Snow,320,2013-03-08 03:46:00
10:54 PM,28.0,25.0,88,30.05,1.5,NW,4.6,-,0.01,Snow,Light Snow,320,2013-03-08 03:54:00
11:54 PM,27.0,24.1,89,30.04,2.5,NW,6.9,-,0.02,Snow,Light Snow,320,2013-03-08 04:54:00